FW5669 Weather Reports


Display with metric or nautical units.
time (UTC)temp
F
wind
direction
speed
MPH
gust
MPH
rain 1hr
in
rain 24hr
in
rain mn
in
humidity
%
barometer
mb
20260906070002 56 47 0.0 0.0 0.00 0.00 0.00 78 1016.0
20260906064502 56 47 0.0 0.0 0.00 0.00 0.00 77 1015.9
20260906063003 56 47 0.0 0.0 0.00 0.00 0.00 76 1016.0
20260906061502 57 47 0.0 2.0 0.00 0.00 0.00 75 1016.1
20260906060005 58 47 0.0 1.0 0.00 0.00 0.00 73 1016.0
20260906054503 59 47 0.0 2.0 0.00 0.00 0.00 70 1015.9
20260906053002 60 47 0.0 0.0 0.00 0.00 0.00 67 1015.8
20260906051502 60 47 0.0 2.0 0.00 0.00 0.00 67 1015.8
20260906050001 60 30 0.0 2.0 0.00 0.00 0.00 67 1015.8
20260906044502 60 44 0.0 1.0 0.00 0.00 0.00 68 1015.7
20260906043001 61 44 0.0 1.0 0.00 0.00 0.00 67 1015.6
20260906041503 62 44 0.0 2.0 0.00 0.00 0.00 65 1015.6
20260906040002 63 44 0.0 1.0 0.00 0.00 0.00 63 1015.5
20260906034501 64 44 0.0 2.0 0.00 0.00 0.00 60 1015.4
20260906033002 65 75 1.0 2.0 0.00 0.00 0.00 58 1015.3
20260906031503 66 174 0.0 1.0 0.00 0.00 0.00 55 1015.2
20260906030001 69 174 0.0 1.0 0.00 0.00 0.00 52 1014.9
20260906024501 70 174 0.0 1.0 0.00 0.00 0.00 47 1015.0
20260906023008 72 174 0.0 0.0 0.00 0.00 0.00 44 1015.0
20260906021502 73 174 0.0 2.0 0.00 0.00 0.00 42 1015.0
20260906020001 74 150 0.0 2.0 0.00 0.00 0.00 42 1015.1
20260906014502 74 177 0.0 2.0 0.00 0.00 0.00 39 1015.0
20260906013002 75 208 1.0 2.0 0.00 0.00 0.00 39 1015.1
20260906011502 75 268 0.0 2.0 0.00 0.00 0.00 38 1015.2
20260906010002 76 143 1.0 3.0 0.00 0.00 0.00 37 1015.2
20260906004502 76 220 1.0 3.0 0.00 0.00 0.00 37 1015.4
20260906003002 77 217 0.0 3.0 0.00 0.00 0.00 37 1015.6
20260906001500 76 220 1.0 4.0 0.00 0.00 0.00 38 1015.6
20260906000002 76 133 1.0 4.0 0.00 0.00 0.00 37 1015.6
20260905234503 76 156 1.0 4.0 0.00 0.00 0.00 37 1015.6
20260905233005 77 183 1.0 3.0 0.00 0.00 0.00 36 1015.4
20260905231502 77 227 2.0 6.0 0.00 0.00 0.00 36 1015.6
20260905230002 77 185 2.0 4.0 0.00 0.00 0.00 35 1015.8
20260905224501 78 124 1.0 4.0 0.00 0.00 0.00 35 1016.2
20260905223002 78 129 1.0 7.0 0.00 0.00 0.00 34 1016.1
20260905221504 78 159 2.0 7.0 0.00 0.00 0.00 33 1016.2
20260905220002 79 268 1.0 4.0 0.00 0.00 0.00 34 1016.2
20260905214501 77 239 2.0 5.0 0.00 0.00 0.00 34 1016.3
20260905213002 75 150 1.0 8.0 0.00 0.00 0.00 34 1016.4
20260905211506 75 168 1.0 4.0 0.00 0.00 0.00 31 1016.5
20260905210002 74 107 1.0 4.0 0.00 0.00 0.00 36 1016.7
20260905204601 73 120 1.0 6.0 0.00 0.00 0.00 37 1016.8
20260905203103 72 216 1.0 5.0 0.00 0.00 0.00 40 1016.7
20260905201601 72 186 0.0 3.0 0.00 0.00 0.00 44 1016.8
20260905200107 72 71 1.0 4.0 0.00 0.00 0.00 46 1016.8
20260905200003 72 95 0.0 3.0 0.00 0.00 0.00 45 1016.8
20260905194502 72 192 2.0 4.0 0.00 0.00 0.00 46 1016.8
20260905193002 72 144 1.0 4.0 0.00 0.00 0.00 48 1016.8
20260905191500 72 240 2.0 4.0 0.00 0.00 0.00 49 1016.8
20260905190001 71 162 2.0 4.0 0.00 0.00 0.00 51 1016.7
20260905184506 71 198 3.0 5.0 0.00 0.00 0.00 51 1016.7
20260905183003 71 225 3.0 5.0 0.00 0.00 0.00 53 1016.5
20260905181501 70 260 2.0 5.0 0.00 0.00 0.00 53 1016.5
20260905180002 70 201 1.0 4.0 0.00 0.00 0.00 53 1016.5
20260905174501 70 150 1.0 8.0 0.00 0.00 0.00 53 1016.5
20260905173000 70 244 2.0 3.0 0.00 0.00 0.00 53 1016.4
20260905171501 70 165 2.0 4.0 0.00 0.00 0.00 53 1016.4
20260905170001 69 49 2.0 4.0 0.00 0.00 0.00 51 1016.4
20260905164504 67 81 0.0 4.0 0.00 0.00 0.00 58 1016.3
20260905163001 66 195 0.0 3.0 0.00 0.00 0.00 61 1016.3
20260905161502 64 204 0.0 2.0 0.00 0.00 0.00 66 1016.5
20260905160007 62 154 1.0 3.0 0.00 0.00 0.00 71 1016.4
20260905154501 61 213 0.0 2.0 0.00 0.00 0.00 77 1016.5
20260905153001 59 186 0.0 1.0 0.00 0.00 0.00 81 1016.5
20260905151502 57 186 0.0 1.0 0.00 0.00 0.00 82 1016.3
20260905150001 54 38 0.0 0.0 0.00 0.00 0.00 85 1016.4
20260905144559 51 27 0.0 0.0 0.00 0.00 0.00 90 1016.3
20260905143100 49 349 0.0 0.0 0.00 0.00 0.00 91 1016.3
20260905141601 49 349 0.0 0.0 0.00 0.00 0.00 91 1016.3
20260905134600 48 10 0.0 0.0 0.00 0.01 0.00 90 1016.0
20260905133101 49 6 0.0 0.0 0.00 0.01 0.00 90 1016.1
20260905131600 49 16 0.0 0.0 0.00 0.01 0.00 90 1016.0
20260905130059 49 35 0.0 0.0 0.00 0.01 0.00 89 1015.9
20260905130002 49 35 0.0 0.0 0.00 0.01 0.00 89 1015.9
20260905124501 49 35 0.0 0.0 0.00 0.01 0.00 90 1016.0
20260905123001 49 41 0.0 0.0 0.00 0.01 0.00 91 1016.0
20260905121501 49 25 0.0 0.0 0.00 0.01 0.00 92 1015.9
20260905120001 48 25 0.0 0.0 0.00 0.01 0.00 91 1016.0
20260905114600 48 25 0.0 0.0 0.00 0.02 0.00 91 1016.0
20260905113111 48 25 0.0 0.0 0.00 0.02 0.00 91 1016.0
20260905111600 48 25 0.0 0.0 0.00 0.02 0.00 90 1016.1
20260905110100 49 25 0.0 0.0 0.00 0.02 0.00 90 1016.0
20260905110003 49 25 0.0 0.0 0.00 0.02 0.00 90 1016.0
20260905104501 49 25 0.0 0.0 0.00 0.04 0.00 90 1016.1
20260905103004 49 25 0.0 0.0 0.00 0.04 0.00 89 1016.2
20260905101501 49 25 0.0 0.0 0.00 0.04 0.00 89 1016.2
20260905100002 50 25 0.0 0.0 0.00 0.09 0.00 88 1016.3
20260905094601 50 25 0.0 0.0 0.00 0.09 0.00 87 1016.3
20260905093100 51 25 0.0 0.0 0.00 0.09 0.00 87 1016.3
20260905091604 51 356 0.0 0.0 0.00 0.09 0.00 86 1016.2
20260905090103 51 356 0.0 0.0 0.00 0.09 0.00 85 1016.3
20260905084559 52 356 0.0 0.0 0.00 0.13 0.00 85 1016.3
20260905083059 52 356 0.0 1.0 0.00 0.13 0.00 84 1016.4
20260905081600 53 356 0.0 1.0 0.00 0.13 0.00 84 1016.4
20260905080059 53 356 0.0 2.0 0.00 0.13 0.00 83 1016.4
20260905080006 53 356 0.0 2.0 0.00 0.13 0.00 82 1016.4
20260905074503 53 356 0.0 2.0 0.00 0.15 0.00 82 1016.2
20260905073002 53 39 0.0 3.0 0.00 0.15 0.00 82 1016.1
20260905071503 54 23 0.0 0.0 0.00 0.15 0.00 82 1016.2